When you browse on this site, cookies collect data to enhance your experience and personalize the content and advertising you see.
Visit our Privacy Policy to learn more. By continuing to use the site, you agree to this use of cookies and data.
  • In Hungary
  • List of Countries
  • For 7 days
  • Water Temperature
  • Satellite Maps
  • Weather Map
  • News
  • Weather Widgets
  • user-avatar
    Login

    Hourly Weather Cartagena

    Today, 11 December, Tuesday

    Time Temperature Precipitation Wind Pressure Humidity
    00:00 +13°C° 0 mm 2 mps 768 mmHg 87%
    01:00 +12°C° 0 mm 2 mps 768 mmHg 87%
    02:00 +12°C° 0 mm 2 mps 767 mmHg 87%
    03:00 +12°C° 0 mm 2 mps 767 mmHg 87%
    04:00 +10°C° 0 mm 2 mps 767 mmHg 87%
    05:00 +11°C° 0 mm 1 mps 767 mmHg 87%
    06:00 +11°C° 0 mm 1 mps 767 mmHg 87%
    07:00 +12°C° 0 mm 1 mps 767 mmHg 82%
    08:00 +14°C° 0 mm 1 mps 767 mmHg 76%
    09:00 +15°C° 0 mm 1 mps 766 mmHg 70%
    10:00 +18°C° 0 mm 1 mps 766 mmHg 65%
    11:00 +19°C° 0 mm 1 mps 766 mmHg 60%
    12:00 +20°C° 0 mm 1 mps 766 mmHg 55%
    13:00 +19°C° 0 mm 2 mps 766 mmHg 54%
    14:00 +20°C° 0 mm 2 mps 765 mmHg 54%
    15:00 +20°C° 0 mm 2 mps 765 mmHg 53%
    16:00 +18°C° 0 mm 3 mps 765 mmHg 62%
    17:00 +17°C° 0 mm 3 mps 765 mmHg 70%
    18:00 +14°C° 0 mm 3 mps 765 mmHg 78%
    19:00 +14°C° 0 mm 3 mps 765 mmHg 78%
    20:00 +14°C° 0 mm 3 mps 765 mmHg 77%
    21:00 +14°C° 0 mm 3 mps 765 mmHg 77%
    22:00 +14°C° 0 mm 3 mps 765 mmHg 74%
    23:00 +14°C° 0 mm 3 mps 765 mmHg 72%

    Tomorrow, 12 December, Wednesday

    Time Temperature Precipitation Wind Pressure Humidity
    00:00 +14°C° 0 mm 2 mps 765 mmHg 69%
    01:00 +14°C° 0 mm 2 mps 765 mmHg 68%
    02:00 +14°C° 0 mm 2 mps 764 mmHg 68%
    03:00 +14°C° 0 mm 2 mps 764 mmHg 67%
    04:00 +14°C° 0 mm 2 mps 764 mmHg 67%
    05:00 +13°C° 0 mm 2 mps 764 mmHg 67%
    06:00 +13°C° 0 mm 2 mps 765 mmHg 67%
    07:00 +14°C° 0 mm 2 mps 765 mmHg 63%
    08:00 +16°C° 0 mm 2 mps 765 mmHg 59%
    09:00 +17°C° 0 mm 2 mps 765 mmHg 56%
    10:00 +18°C° 0 mm 2 mps 765 mmHg 52%
    11:00 +19°C° 0 mm 2 mps 765 mmHg 47%
    12:00 +22°C° 0 mm 1 mps 765 mmHg 43%
    13:00 +21°C° 0 mm 2 mps 764 mmHg 43%
    14:00 +21°C° 0 mm 2 mps 764 mmHg 42%
    15:00 +21°C° 0 mm 2 mps 763 mmHg 42%
    16:00 +19°C° 0 mm 2 mps 763 mmHg 49%
    17:00 +18°C° 0 mm 3 mps 763 mmHg 56%
    18:00 +16°C° 0 mm 3 mps 763 mmHg 64%
    19:00 +15°C° 0 mm 2 mps 763 mmHg 65%
    20:00 +15°C° 0 mm 2 mps 763 mmHg 66%
    21:00 +15°C° 0 mm 2 mps 763 mmHg 68%
    22:00 +15°C° 0 mm 2 mps 763 mmHg 68%
    23:00 +14°C° 0 mm 2 mps 763 mmHg 68%

    Day after tomorrow, 13 December, Thursday

    Time Temperature Precipitation Wind Pressure Humidity
    00:00 +14°C° 0 mm 1 mps 762 mmHg 68%
    01:00 +14°C° 0 mm 1 mps 762 mmHg 68%
    02:00 +14°C° 0 mm 2 mps 761 mmHg 68%
    03:00 +14°C° 0 mm 2 mps 761 mmHg 69%
    04:00 +14°C° 0 mm 2 mps 760 mmHg 68%
    05:00 +15°C° 0 mm 2 mps 760 mmHg 67%
    06:00 +15°C° 0 mm 2 mps 759 mmHg 66%
    07:00 +14°C° 0.2 mm 3 mps 759 mmHg 67%
    08:00 +14°C° 0.2 mm 3 mps 758 mmHg 68%
    09:00 +14°C° 0.2 mm 3 mps 758 mmHg 69%
    10:00 +15°C° 0.2 mm 4 mps 757 mmHg 63%
    11:00 +17°C° 0.2 mm 6 mps 756 mmHg 57%
    12:00 +18°C° 0.2 mm 7 mps 755 mmHg 51%
    13:00 +17°C° 1.5 mm 9 mps 755 mmHg 48%
    14:00 +16°C° 1.5 mm 11 mps 755 mmHg 45%
    15:00 +13°C° 1.5 mm 13 mps 754 mmHg 43%
    16:00 +13°C° 0 mm 13 mps 755 mmHg 45%
    17:00 +12°C° 0 mm 13 mps 756 mmHg 48%
    18:00 +10°C° 0 mm 14 mps 756 mmHg 50%
    19:00 +10°C° 0.1 mm 14 mps 757 mmHg 49%
    20:00 +10°C° 0.1 mm 13 mps 757 mmHg 49%
    21:00 +10°C° 0.1 mm 13 mps 758 mmHg 48%
    22:00 +10°C° 0 mm 13 mps 758 mmHg 48%
    23:00 +10°C° 0 mm 13 mps 758 mmHg 48%

    14 December, Friday

    Time Temperature Precipitation Wind Pressure Humidity
    00:00 +9°C° 0 mm 12 mps 759 mmHg 48%
    01:00 +9°C° 0 mm 12 mps 759 mmHg 49%
    02:00 +9°C° 0 mm 12 mps 760 mmHg 49%
    03:00 +8°C° 0 mm 12 mps 760 mmHg 50%
    04:00 +8°C° 0 mm 12 mps 761 mmHg 51%
    05:00 +8°C° 0 mm 12 mps 762 mmHg 51%
    06:00 +8°C° 0 mm 12 mps 762 mmHg 52%
    07:00 +9°C° 0 mm 12 mps 763 mmHg 51%
    08:00 +9°C° 0 mm 11 mps 764 mmHg 50%
    09:00 +11°C° 0 mm 11 mps 765 mmHg 49%
    10:00 +12°C° 0 mm 10 mps 765 mmHg 45%
    11:00 +15°C° 0 mm 9 mps 765 mmHg 41%
    12:00 +16°C° 0 mm 9 mps 765 mmHg 38%
    13:00 +16°C° 0 mm 8 mps 765 mmHg 37%
    14:00 +16°C° 0 mm 7 mps 765 mmHg 37%
    15:00 +16°C° 0 mm 7 mps 765 mmHg 37%
    16:00 +15°C° 0 mm 6 mps 765 mmHg 40%
    17:00 +14°C° 0 mm 6 mps 766 mmHg 43%
    18:00 +13°C° 0 mm 5 mps 767 mmHg 46%
    19:00 +12°C° 0 mm 5 mps 767 mmHg 48%
    20:00 +12°C° 0 mm 5 mps 768 mmHg 50%
    21:00 +10°C° 0 mm 5 mps 768 mmHg 52%
    22:00 +10°C° 0 mm 5 mps 768 mmHg 53%
    23:00 +10°C° 0 mm 5 mps 768 mmHg 54%

    15 December, Saturday

    Time Temperature Precipitation Wind Pressure Humidity
    00:00 +9°C° 0 mm 5 mps 768 mmHg 55%
    01:00 +10°C° 0 mm 4 mps 768 mmHg 55%
    02:00 +10°C° 0 mm 4 mps 768 mmHg 56%
    03:00 +10°C° 0 mm 4 mps 768 mmHg 56%
    04:00 +10°C° 0 mm 3 mps 768 mmHg 56%
    05:00 +9°C° 0 mm 3 mps 768 mmHg 56%
    06:00 +9°C° 0 mm 3 mps 768 mmHg 56%
    07:00 +10°C° 0 mm 3 mps 769 mmHg 53%
    08:00 +12°C° 0 mm 2 mps 769 mmHg 49%
    09:00 +13°C° 0 mm 2 mps 769 mmHg 46%
    10:00 +15°C° 0 mm 2 mps 769 mmHg 42%
    11:00 +17°C° 0 mm 3 mps 769 mmHg 37%
    12:00 +19°C° 0 mm 3 mps 769 mmHg 33%
    13:00 +19°C° 0 mm 3 mps 768 mmHg 34%
    14:00 +20°C° 0 mm 3 mps 768 mmHg 35%
    15:00 +20°C° 0 mm 3 mps 768 mmHg 36%
    16:00 +19°C° 0 mm 3 mps 768 mmHg 42%
    17:00 +17°C° 0 mm 3 mps 768 mmHg 49%
    18:00 +14°C° 0 mm 3 mps 769 mmHg 55%
    19:00 +14°C° 0 mm 3 mps 769 mmHg 57%
    20:00 +14°C° 0 mm 3 mps 769 mmHg 59%
    21:00 +13°C° 0 mm 3 mps 769 mmHg 60%
    22:00 +13°C° 0 mm 3 mps 769 mmHg 61%
    23:00 +14°C° 0 mm 2 mps 769 mmHg 62%

    16 December, Sunday

    Time Temperature Precipitation Wind Pressure Humidity
    00:00 +14°C° 0 mm 2 mps 769 mmHg 63%
    01:00 +14°C° 0 mm 2 mps 769 mmHg 65%
    02:00 +14°C° 0 mm 2 mps 768 mmHg 67%
    03:00 +14°C° 0 mm 2 mps 768 mmHg 69%
    04:00 +13°C° 0 mm 2 mps 768 mmHg 70%
    05:00 +13°C° 0 mm 2 mps 768 mmHg 71%
    06:00 +13°C° 0 mm 2 mps 768 mmHg 71%
    07:00 +15°C° 0 mm 2 mps 768 mmHg 66%
    08:00 +16°C° 0 mm 2 mps 768 mmHg 61%
    09:00 +18°C° 0 mm 2 mps 768 mmHg 56%
    10:00 +19°C° 0 mm 2 mps 768 mmHg 51%
    11:00 +20°C° 0 mm 2 mps 768 mmHg 46%
    12:00 +22°C° 0 mm 3 mps 767 mmHg 42%
    13:00 +22°C° 0 mm 3 mps 767 mmHg 42%
    14:00 +22°C° 0 mm 3 mps 767 mmHg 43%
    15:00 +22°C° 0 mm 3 mps 766 mmHg 43%
    16:00 +20°C° 0 mm 3 mps 766 mmHg 51%
    17:00 +18°C° 0 mm 3 mps 767 mmHg 58%
    18:00 +16°C° 0 mm 2 mps 767 mmHg 65%
    19:00 +16°C° 0 mm 2 mps 767 mmHg 66%
    20:00 +15°C° 0 mm 2 mps 767 mmHg 66%
    21:00 +15°C° 0 mm 2 mps 767 mmHg 67%
    22:00 +15°C° 0 mm 2 mps 767 mmHg 69%
    23:00 +14°C° 0 mm 2 mps 767 mmHg 70%
    Show more